sat.trackr.live / text

‹ back to catalog

SPARK 2

NORAD 41901 · 2016-081D

PAYLOAD ACTIVE UNKNOWN

§ Identity

Operator
Country
PRC
Launch date
2016-12-21
Launch site
JSC
Launch vehicle
Mass (kg)
RCS (m²)
0.24

External: N2YO · Heavens-Above · Gunter

§ Orbital elements

Epoch: 2026-09-19T16:37:28.861824Z

Period
98.68 min
Inclination
98.5585°
Eccentricity
0.0026024
Mean motion
14.59247324 rev/d
Perigee alt
677.2 km
Apogee alt
714.0 km
Semi-major
7,073.7 km
B*
8.8473e-5
RAAN
255.3186°
Arg perigee
35.3288°
Mean anomaly
324.9629°
Rev number
51,790

§ Raw data

SPARK 21 41901U 16081D   26262.69269516  .00000369  00000+0  88473-4 0  99942 41901  98.5585 255.3186 0026024  35.3288 324.9629 14.59247324517908

JSON: /api/v1/satellites/41901 · /tle

For live sub-satellite position, see the globe view (requires WebGL).

§ Visibility from observer

Set your observer location to see the next 7 days of passes ≥ 10°. The values pass through the URL so the page stays shareable.

No JS? Fill the form by hand. The geolocation button needs JavaScript.